Regional Weather Roundup
Issued by NWS

Home | Current Version | Previous Version | Graphics & Text | Print | Product List | Glossary On
Versions: 1 2 3 4 5 6 7 8 9 10 11 12 13 14 15 16 17 18 19 20 21 22 23 24 25 26 27 28 29 30 31 32 33 34 35 36 37 38 39 40 41 42 43 44 45 46 47 48 49 50
000
ASUS43 KFSD 270202
RWRSD

WEATHER ROUNDUP FOR SOUTH DAKOTA
NATIONAL WEATHER SERVICE SIOUX FALLS SD
900 PM CDT TUE AUG 26 2014

NOTE: "FAIR" INDICATES FEW OR NO CLOUDS BELOW 12,000 FEET WITH NO
SIGNIFICANT WEATHER AND/OR OBSTRUCTIONS TO VISIBILITY.


SDZ001>005-009-010-012>017-270300-
NORTHWEST AND NORTH CENTRAL SOUTH DAKOTA

CITY           SKY/WX    TMP DP  RH WIND       PRES   REMARKS
BUFFALO          N/A     62  55  77 E9        30.08R
FAITH            N/A     61  55  81 E8        30.13R
MOBRIDGE       MOCLDY    60  56  86 E7        30.11S
$$

SDZ012>016-024>037-041>051-057-063-072>074-270300-
SOUTHWEST AND SOUTH CENTRAL SOUTH DAKOTA

CITY           SKY/WX    TMP DP  RH WIND       PRES   REMARKS
RAPID CTY ARPT CLEAR     65  57  75 NE8       30.12R
PIERRE         CLEAR     66  57  72 E10       30.08S
CUSTER         PTCLDY    60  55  83 NE10      30.23R
ELLSWORTH AFB  CLEAR     71  58  62 E6        30.12R
PHILIP         CLEAR     69  56  62 NE12      30.08R
PINE RIDGE     MOCLDY    64  61  90 NE6       30.11R
WINNER         FAIR      69  58  67 E12       30.09R
$$

SDZ004>011-016>023-039-040-270300-
NORTHEAST SOUTH DAKOTA

CITY           SKY/WX    TMP DP  RH WIND       PRES   REMARKS
ABERDEEN       CLOUDY    59  56  89 CALM      30.15S
WATERTOWN      MOCLDY    60  53  77 E7        30.15R
SISSETON         N/A     60  57  89 SW5       30.14S
$$

SDZ017-020-022-023-036>040-048>070-270300-
SOUTHEAST SOUTH DAKOTA

CITY           SKY/WX    TMP DP  RH WIND       PRES   REMARKS
SIOUX FALLS    MOCLDY    67  56  67 SE8       30.14R
HURON          CLEAR     62  57  83 N7        30.13R
CHAMBERLAIN    CLEAR     64  57  78 E7        30.11R
MITCHELL       PTCLDY    64  60  87 E5        30.13R
YANKTON        CLEAR     64  59  82 E5        30.13R
$$

ABBREVIATIONS USED IN REMARKS
   TC - TEMPERATURE IN CELSIUS
  WCI - WIND CHILL INDEX
   HX - HEAT INDEX
  VSB - VISIBILITY




USA.gov is the U.S. government's official web portal to all federal, state and local government web resources and services.